Dewpoint
18 15 14 17 19 22 21 23 25 25 25 23 23 24 24 26 27 26 27 27 28 31 35 36 37 39 42 44 44 47 56 62 64 64 64 64 64 64 64 65 66 65 65 65
18 15 18 18 19 18 18 19 21 24 25 24 25 25 26 27 27 28 30 31 32 32 33 34 37 40 42 43 46 47 54 63 63 64 64 63 63 62 63 64 65 65 65 64
18 18 18 17 18 18 19 20 20 22 24 23 22 20 20 24 28 28 29 30 32 33 33 33 36 40 41 44 49 53 59 63 65 63 62 61 61 61 61 61 62 63 64 63
14 14 13 13 15 16 14 21 22 23 22 18 20 16 17 17 18 24 24 25 28 31 32 36 35 37 40 43 56 62 64 65 65 64 62 60 60 58 59 61 61 62 63 62
13 13 12 9 11 13 18 20 22 21 21 20 21 19 14 18 17 18 20 23 26 28 31 32 34 35 38 52 62 65 65 65 64 62 61 60 58 58 59 61 60 60 61 62
16 15 13 11 11 13 16 20 19 20 20 18 18 19 16 15 17 20 25 26 27 29 30 32 41 47 58 63 65 65 65 64 63 61 60 59 58 59 60 59 59 59 59 60
22 16 14 13 11 14 14 12 15 16 18 17 19 18 17 22 23 22 23 24 26 27 29 42 54 58 62 64 64 64 64 62 61 60 59 59 58 59 59 59 59 58 58 58
24 19 18 25 17 17 11 11 14 12 15 15 17 17 18 21 22 20 20 21 26 35 51 56 58 60 62 63 62 63 62 60 60 59 59 59 59 59 59 59 59 58 58 59
25 20 25 22 22 21 20 8 10 7 15 13 18 20 22 21 17 21 21 21 30 45 55 57 60 61 62 61 60 62 60 59 59 58 59 59 59 59 58 58 58 58 58 59
26 21 24 22 22 21 19 20 9 11 10 11 16 17 18 22 18 24 23 24 38 54 57 59 60 60 61 60 60 60 59 59 59 59 59 59 59 59 59 59 58 58 58 58
28 25 23 24 20 14 19 21 18 11 14 14 14 18 23 21 21 22 23 26 49 55 57 59 60 60 60 60 60 58 59 59 59 59 59 59 59 59 59 58 58 58 57 58
33 29 27 24 23 23 23 22 23 16 11 16 17 15 18 20 20 23 35 40 54 56 58 59 59 60 60 59 59 58 59 58 58 59 59 58 58 58 57 58 58 58 57 58
33 27 22 18 26 29 25 27 26 30 26 22 13 14 18 20 22 33 43 51 54 56 58 58 59 59 59 58 58 58 58 58 58 58 58 58 58 57 57 58 58 56 56 57
35 28 24 19 21 27 27 27 31 30 26 22 18 17 16 19 29 27 49 52 52 56 57 58 58 59 59 58 58 58 58 58 58 58 58 58 57 57 57 58 57 55 55 56
34 28 29 28 28 30 29 29 30 29 29 27 26 26 21 29 28 29 47 51 54 56 56 57 57 58 58 58 58 58 57 58 59 58 58 58 59 58 58 58 56 56 56 57
37 28 31 27 28 26 32 30 30 29 28 28 28 27 28 29 44 47 47 51 54 54 55 56 57 57 57 57 57 57 56 56 58 58 59 59 60 58 57 57 56 56 56 57
33 30 27 22 23 28 26 28 29 29 27 27 26 27 28 33 38 49 49 52 53 54 54 55 56 56 56 56 56 55 55 56 58 59 59 60 59 58 58 57 56 54 57 58
29 31 30 25 27 19 29 39 37 32 26 28 29 28 40 39 40 52 53 50 52 53 53 54 55 56 56 56 55 54 54 56 57 58 59 59 58 57 57 56 55 56 58 60
33 29 27 24 25 28 31 37 37 37 35 44 44 47 47 46 49 50 54 54 53 52 53 54 55 55 55 54 53 53 55 56 57 59 59 58 57 56 56 54 55 55 55 56
36 30 28 28 24 24 36 38 38 40 33 45 45 46 47 47 44 47 55 55 54 51 52 53 54 55 54 53 52 53 55 56 56 58 58 57 56 55 56 56 56 56 56 56
33 30 27 26 26 31 37 38 39 34 35 45 47 46 47 45 47 49 54 55 55 51 52 53 54 53 53 51 52 52 54 55 56 57 57 56 56 56 57 57 56 57 57 58
32 30 31 30 29 27 38 36 38 42 45 46 46 47 48 49 49 51 53 54 54 50 52 53 53 52 50 51 51 50 52 53 55 56 56 55 56 56 57 57 57 58 57 57
31 33 31 32 32 36 38 39 40 47 45 46 47 47 49 47 48 49 50 52 53 55 52 52 51 49 49 50 50 49 50 51 54 54 54 55 57 57 58 57 57 57 56 56
36 38 33 34 37 37 41 45 45 47 47 48 47 49 47 46 46 46 47 47 49 55 54 51 49 48 48 49 48 49 49 52 53 54 55 57 57 57 57 58 58 57 56 56
37 39 36 35 39 40 42 45 45 46 48 47 48 45 44 44 44 46 48 48 48 50 54 52 49 49 48 49 48 48 50 54 54 55 56 57 57 57 57 56 56 58 57 57
37 36 36 35 39 41 42 45 47 46 46 46 46 44 44 45 45 45 48 49 49 49 52 54 54 52 51 49 48 48 51 54 55 55 56 56 57 57 56 54 52 43 44 45
Lifted_Index
10 9 8 8 8 7 7 6 6 6 5 5 5 6 6 6 6 6 6 6 6 5 5 4 4 3 3 3 2 2 1 -1 -3 -4 -5 -5 -5 -5 -6 -6 -6 -6 -6 -5
10 10 9 9 8 8 7 7 6 6 5 5 5 6 6 7 7 6 6 6 6 5 5 4 4 3 3 3 2 2 1 -1 -3 -4 -4 -5 -5 -5 -6 -6 -6 -6 -6 -5
10 10 10 9 9 9 8 7 7 6 6 5 5 5 5 6 6 7 7 6 6 5 5 4 4 4 4 4 3 1 -1 -3 -4 -4 -4 -4 -5 -5 -6 -6 -6 -6 -5 -5
9 10 10 10 10 9 9 9 8 7 6 6 5 4 4 5 5 6 6 6 6 5 5 5 5 5 4 3 2 -1 -3 -4 -5 -5 -5 -5 -5 -6 -6 -6 -5 -5 -4 -3
7 8 9 9 9 9 9 9 9 8 7 6 5 4 3 3 4 5 5 5 5 5 5 5 6 5 4 2 -1 -3 -5 -6 -6 -6 -6 -6 -6 -6 -5 -5 -4 -4 -3 -2
4 5 6 7 8 8 9 9 8 7 6 5 5 4 3 3 4 4 4 5 5 5 6 6 5 3 2 -1 -3 -5 -6 -6 -6 -6 -6 -6 -6 -5 -5 -4 -4 -3 -2 -2
2 2 3 4 6 7 8 8 6 4 3 3 4 4 3 4 5 5 4 5 5 6 5 4 3 1 -1 -3 -5 -5 -6 -6 -7 -7 -6 -6 -5 -5 -4 -3 -2 -2 -2 -2
0 1 1 2 3 5 7 7 5 3 2 3 4 4 4 6 6 5 5 5 6 5 4 2 0 -1 -3 -4 -5 -5 -6 -6 -6 -6 -5 -5 -4 -3 -3 -2 -2 -1 -1 -1
0 0 0 1 2 3 5 6 6 5 3 3 3 3 5 5 5 4 4 5 5 4 2 0 -1 -2 -3 -4 -5 -5 -5 -5 -5 -4 -4 -3 -2 -2 -1 -1 -1 -1 -1 -0
0 0 0 0 1 2 3 4 5 6 4 2 1 2 4 4 3 3 4 4 4 2 0 -1 -2 -2 -3 -4 -5 -5 -5 -4 -3 -2 -2 -1 -1 -1 -1 -1 -0 -0 0 1
1 1 1 1 1 2 2 3 4 5 5 3 1 2 5 5 4 3 3 3 3 1 -1 -2 -2 -3 -4 -4 -4 -4 -3 -3 -2 -1 -0 -0 -0 -0 0 0 0 1 1 2
1 1 1 1 1 1 1 2 3 5 6 5 3 3 5 6 4 3 2 2 1 -0 -1 -2 -2 -3 -3 -3 -3 -3 -2 -1 -1 -0 0 0 0 1 1 1 1 1 1 2
1 1 1 1 1 1 1 2 3 5 7 6 4 4 5 5 4 3 2 0 -0 -1 -2 -2 -3 -3 -3 -3 -2 -1 -1 -0 0 0 0 1 1 1 1 1 1 1 2 2
1 1 1 1 1 1 1 2 3 5 7 7 5 5 4 3 3 3 1 -0 -2 -2 -3 -3 -3 -2 -2 -2 -1 -1 -0 -0 0 0 1 1 1 1 1 1 1 2 2 2
1 1 1 1 1 1 1 2 3 5 7 8 7 6 4 3 3 2 1 -1 -2 -3 -3 -3 -3 -2 -2 -1 -1 -0 -0 0 0 0 1 1 1 1 1 1 1 2 2 2
1 1 1 1 1 1 1 1 3 5 7 8 8 6 5 4 2 1 0 -1 -2 -3 -3 -3 -3 -2 -2 -1 -0 -0 0 0 0 0 1 1 1 1 1 1 2 2 2 2
2 2 2 1 1 1 0 1 2 4 6 8 8 6 5 4 2 0 -1 -1 -2 -3 -3 -3 -3 -2 -2 -1 -0 -0 0 0 1 0 0 1 1 1 2 2 2 1 1 1
2 2 2 1 1 0 -0 -0 1 3 5 6 6 5 4 3 1 -0 -1 -2 -2 -3 -3 -3 -3 -2 -1 -1 -0 0 0 1 1 0 0 1 1 2 2 2 2 1 1 1
2 2 2 1 1 0 -0 -0 0 2 3 3 3 2 1 1 0 -1 -1 -2 -3 -3 -3 -3 -3 -2 -1 -1 -0 0 1 1 1 -0 0 1 2 2 2 2 2 1 1 1
1 1 1 1 1 1 0 0 1 1 1 1 1 1 0 -0 -0 -0 -0 -1 -2 -3 -3 -3 -3 -2 -1 -1 0 0 1 1 0 -0 0 1 1 2 2 2 2 1 1 1
1 1 1 1 1 1 1 1 1 1 1 0 0 -0 -0 -0 -0 0 1 -0 -2 -3 -3 -3 -3 -2 -1 -1 0 1 1 1 0 -0 0 1 1 2 1 1 1 1 1 1
1 1 1 1 1 2 2 1 1 1 0 -0 -0 -1 -1 -0 -0 0 0 -0 -2 -3 -3 -3 -3 -2 -2 -1 0 1 1 1 0 -0 -0 0 1 1 1 0 0 0 0 0
2 2 1 2 2 2 2 2 1 1 1 -0 -1 -1 -1 -1 -0 -0 -0 -1 -2 -3 -3 -3 -3 -2 -2 -1 0 1 1 1 0 -1 -0 0 0 0 0 -0 -0 -0 0 0
2 2 2 2 2 2 3 2 2 1 1 1 0 -0 -1 -1 -1 -1 -1 -1 -2 -3 -3 -3 -3 -2 -2 -1 0 1 2 1 0 -1 -1 -0 -0 -0 -0 -1 -1 -0 0 0
3 3 2 2 2 3 3 3 2 2 3 3 2 0 -0 -1 -1 -1 -1 -2 -2 -3 -3 -3 -3 -2 -2 -1 0 1 2 1 0 -0 -1 -1 -0 -0 -1 -1 -1 -0 0 0
3 3 2 2 2 3 3 3 2 3 4 4 2 1 0 -0 -1 -1 -1 -2 -3 -3 -4 -3 -3 -2 -2 -1 -0 1 2 1 0 -0 -1 -1 -0 -1 -1 -1 -1 -0 0 0